Weather Service Report


428 
ASUS44 KBMX 010710
RWRAL 
             
ALABAMA REGIONAL WEATHER ROUNDUP
NATIONAL WEATHER SERVICE BIRMINGHAM AL
200 AM CDT WED OCT 01 2014

NOTE: "FAIR" INDICATES FEW OR NO CLOUDS BELOW 12,000 FEET
WITH NO SIGNIFICANT WEATHER AND/OR OBSTRUCTIONS TO VISIBILITY.

THE REMARK "TC" DENOTES TEMPERATURE IN DEGREES CELSIUS.

ALZ001>011-014-016>018-020-010800-
NORTH ALABAMA
  
CITY           SKY/WX    TMP DP  RH WIND       PRES   REMARKS
MUSCLE SHOALS  CLEAR     62  58  86 CALM      29.93S                  
HUNTSVILLE     CLEAR     65  60  84 CALM      29.93R                  
DECATUR        CLEAR     62  58  86 CALM      29.94R                  
HALEYVILLE     FAIR      60  60 100 CALM      29.96S                  
GADSDEN        PTCLDY    59  55  88 CALM      29.94R                  
$$
 
ALZ012-013-022-023-030>036-040>044-010800-
WEST CENTRAL ALABAMA
  
CITY           SKY/WX    TMP DP  RH WIND       PRES   REMARKS
TUSCALOOSA     CLEAR     63  60  90 CALM      29.92R                  
$$
 
ALZ015-024>027-033>036-040>044-010800-
CENTRAL ALABAMA
  
CITY           SKY/WX    TMP DP  RH WIND       PRES   REMARKS
BIRMINGHAM     CLEAR     64  60  87 CALM      29.94S                  
MONTGOMERY     CLEAR     66  63  90 CALM      29.91F                  
SHELBY CO ARPT CLEAR     64  62  93 CALM      29.93S                  
MAXWELL AFB    FOG       65  65 100 CALM      29.91S VSB 1/2          
GREENVILLE     FAIR      62  59  90 CALM      29.91S                  
$$
 
ALZ019-021-028-029-037-038-045>048-010800-
EAST CENTRAL ALABAMA
  
CITY           SKY/WX    TMP DP  RH WIND       PRES   REMARKS
ANNISTON       PTCLDY    61  60  97 CALM      29.94R                  
ALEXANDER CITY CLEAR     64  62  94 CALM      29.94R                  
AUBURN         CLEAR     64  63  94 CALM      29.97R                  
$$
 
ALZ051>064-010800-
SOUTHWEST ALABAMA
  
CITY           SKY/WX    TMP DP  RH WIND       PRES   REMARKS
MOBILE         CLEAR     67  67 100 CALM      29.91R                  
BROOKLEY FIELD CLEAR     74  69  85 E9        29.91S                  
EVERGREEN      FOG       63  62  97 CALM      29.92R VSB 1/4          
$$

ALZ049-050-065>069-010800-
SOUTHEAST ALABAMA
  
CITY           SKY/WX    TMP DP  RH WIND       PRES   REMARKS
DOTHAN         FOG       63  63 100 CALM      29.94S VSB 3/4          
OZARK          CLEAR     63  62  97 NW2       29.91S                  
TROY           FOG       61  60  97 CALM      29.92F VSB 1            
EUFAULA        CLOUDY    62  60  93 CALM      29.91S                  
$$

Return to Home page


Western Regional Climate Center, wrcc@dri.edu